TimeEDT,TemperatureF,Dew PointF,Humidity,Sea Level PressureIn,VisibilityMPH,Wind Direction,Wind SpeedMPH,Gust SpeedMPH,PrecipitationIn,Events,Conditions,WindDirDegrees,DateUTC
12:53 AM,64.9,63.0,93,29.81,10.0,East,3.5,-,N/A,,Clear,90,2013-06-27 04:53:00
1:53 AM,64.0,62.1,93,29.82,10.0,Calm,Calm,-,N/A,,Clear,0,2013-06-27 05:53:00
2:53 AM,63.0,62.1,97,29.80,10.0,Calm,Calm,-,N/A,,Clear,0,2013-06-27 06:53:00
3:53 AM,62.1,61.0,96,29.81,10.0,Calm,Calm,-,N/A,,Clear,0,2013-06-27 07:53:00
4:53 AM,61.0,60.1,97,29.80,10.0,ESE,4.6,-,N/A,,Clear,110,2013-06-27 08:53:00
5:53 AM,62.1,60.1,93,29.81,10.0,ESE,4.6,-,N/A,,Clear,110,2013-06-27 09:53:00
6:53 AM,64.0,62.1,93,29.80,10.0,SE,3.5,-,N/A,,Clear,140,2013-06-27 10:53:00
7:53 AM,68.0,64.0,87,29.80,10.0,SE,4.6,-,N/A,,Clear,140,2013-06-27 11:53:00
8:53 AM,73.0,66.9,81,29.79,10.0,East,5.8,-,N/A,,Clear,90,2013-06-27 12:53:00
9:53 AM,77.0,68.0,74,29.78,10.0,SE,4.6,-,N/A,,Clear,130,2013-06-27 13:53:00
10:53 AM,79.0,66.9,66,29.76,10.0,SSE,4.6,-,N/A,,Clear,150,2013-06-27 14:53:00
11:53 AM,82.0,66.0,58,29.76,10.0,Variable,3.5,-,N/A,,Clear,0,2013-06-27 15:53:00
12:53 PM,82.9,64.9,54,29.74,10.0,SSE,5.8,-,N/A,,Clear,160,2013-06-27 16:53:00
1:53 PM,84.0,64.9,53,29.73,10.0,SE,4.6,-,N/A,,Clear,130,2013-06-27 17:53:00
2:53 PM,82.9,63.0,51,29.72,10.0,ESE,3.5,-,N/A,,Clear,120,2013-06-27 18:53:00
3:53 PM,81.0,69.1,67,29.70,10.0,NNE,3.5,-,N/A,,Clear,20,2013-06-27 19:53:00
4:53 PM,80.1,71.1,74,29.69,10.0,NE,3.5,-,N/A,,Clear,40,2013-06-27 20:53:00
5:53 PM,78.1,71.1,79,29.68,10.0,NE,4.6,-,N/A,,Clear,40,2013-06-27 21:53:00
6:53 PM,77.0,66.9,71,29.67,10.0,ENE,4.6,-,0.00,Rain,Light Rain,70,2013-06-27 22:53:00
7:53 PM,70.0,66.9,90,29.68,10.0,NE,3.5,-,0.01,Rain,Light Rain,40,2013-06-27 23:53:00
8:53 PM,69.1,66.9,93,29.69,10.0,Calm,Calm,-,0.02,Rain,Light Rain,0,2013-06-28 00:53:00
9:28 PM,69.1,66.9,93,29.71,10.0,Calm,Calm,-,0.07,Rain,Light Rain,0,2013-06-28 01:28:00
9:53 PM,68.0,66.0,93,29.69,8.0,Calm,Calm,-,0.14,Rain,Rain,0,2013-06-28 01:53:00
10:53 PM,68.0,66.9,96,29.64,9.0,NNE,4.6,-,0.08,Rain,Rain,20,2013-06-28 02:53:00
11:53 PM,68.0,66.0,93,29.61,10.0,SE,4.6,-,0.01,Rain,Light Rain,140,2013-06-28 03:53:00